Flag for Germany Weather past 2 weeks in Leutkirch im Allgäu, Baden-Württemberg, Germany

Now
60 °F

Overcast.


Feels Like: 60 °F
Forecast: 57 / 73 °F
Wind: 2 mph from Southwest

Location: Kempten

Current Time: Jul 30, 2014 at 4:48:40 AM

Latest Report: Jul 30, 2014 at 4:00 AM


Visibility: 31 mi

Pressure: 29.78 "Hg

Humidity: 90%

Dew point: 57 °F

Location of Leutkirch im AllgäuLocation

Historic Weather in Leutkirch im Allgäu — Graph

°F

Leutkirch im Allgäu temperature yesterday

Maximum temperature yesterday: 63 °F (at 8:00 PM)
Minimum temperature yesterday: 57 °F (at 8:00 AM)
Average temperature yesterday: 60 °F

Past Weeks' High & Low Weather Summary

 TemperatureHumidityPressure
High88 °F (Jul 19, 4:00 PM)100% (Jul 23, 4:00 AM)30.22 "Hg (Jul 23, 4:00 AM)
Low52 °F (Jul 18, 6:00 AM)24% (Jul 19, 6:00 PM)29.72 "Hg (Jul 28, 6:00 PM)
Average65 °F77%29.95 "Hg
* Reported Jul 15 4:00 AM — Jul 30 4:00 AM, Leutkirch im Allgäu, Weather by CustomWeather, © 2014

Note: Actual official high and low records may vary slightly from our data, if they occured in-between our weather recording intervals... More about our weather records

Advertising

Leutkirch im Allgäu weather history for previous 24 hours

 ConditionsComfort  
Time TempWeatherWind HumidityBarometerVisibility
4:00 AM
Jul 30
60 °FOvercast.2 mph90%29.78 "Hg31 mi
3:00 AM60 °FOvercast.2 mph93%29.79 "Hg22 mi
2:00 AM60 °FOvercast.2 mph97%29.80 "Hg13 mi
1:00 AM59 °FOvercast.1 mph97%29.80 "Hg8 mi
12:00 AM60 °FLight freezing rain. Overcast.2 mph97%29.80 "Hg12 mi
11:00 PM
Jul 29
61 °FLight rain. Overcast.2 mph91%29.80 "Hg19 mi
10:00 PM62 °FOvercast.2 mph87%29.79 "Hg31 mi
9:00 PM62 °FOvercast.1 mph86%29.78 "Hg40 mi
8:00 PM63 °FOvercast.1 mph84%29.76 "Hg43 mi
7:00 PM62 °FOvercast.2 mph87%29.76 "Hg34 mi
6:00 PM62 °FOvercast.1 mph87%29.75 "Hg28 mi
4:00 PM62 °FOvercast.1 mph84%29.76 "Hg19 mi
3:00 PM62 °FOvercast.2 mph84%29.76 "Hg28 mi
2:00 PM62 °FOvercast.2 mph83%29.77 "Hg31 mi
1:00 PM61 °FOvercast.1 mph90%29.78 "Hg31 mi
12:00 PM61 °FOvercast.1 mph86%29.78 "Hg43 mi
11:00 AM60 °FOvercast.2 mph89%29.77 "Hg31 mi
10:00 AM60 °FOvercast.2 mph90%29.78 "Hg37 mi
9:00 AM58 °FOvercast.1 mph95%29.79 "Hg37 mi
8:00 AM57 °FLight rain. Overcast.1 mph97%29.79 "Hg9 mi
7:00 AM58 °FLight rain. Low clouds.1 mph96%29.79 "Hg8 mi
6:00 AM58 °FLight rain. Overcast.1 mph94%29.79 "Hg34 mi
5:00 AM58 °FDrizzle. Overcast.2 mph94%29.80 "Hg31 mi
4:00 AM58 °FOvercast.3 mph94%29.81 "Hg43 mi
Weather by CustomWeather, © 2014

See weather overviewHow to use our weather pages